This demonstration page uses our WeatherBlox Daily Observations layout. Learn more.

Hourly Observations for August 10, 2016

Temp ( °F °C ) Dew Point ( °F °C ) Humidity (%) Winds ( mph kmh ) Pressure ( in mb ) Visibility ( mi km ) Precip ( " mm )
12:54 am 00:54 Clear 81 27.2 75 23.9 82 82 SSE 10 17 29.91 1013 10 16.0934 0 0
1:54 am 01:54 Clear 80 26.7 75 23.9 85 85 SSE 10 17 29.91 1013 10 16.0934 0 0
2:54 am 02:54 Clear 78 25.6 75 23.9 90 90 S 8 13 29.9 1013 10 16.0934 0 0
3:54 am 03:54 Clear 77 25 74 23.3 90 90 Calm 29.9 1013 10 16.0934 0 0
4:54 am 04:54 Clear 77 25 74 23.3 90 90 SSE 8 13 29.9 1012 10 16.0934 0 0
5:54 am 05:54 Clear 76 24.4 74 23.3 94 94 SSE 7 11 29.89 1012 10 16.0934 0 0
6:54 am 06:54 Sunny 75 23.9 73 22.8 94 94 SSE 8 13 29.91 1013 9 14.48406 0 0
7:54 am 07:54 Sunny 77 25 74 23.3 90 90 S 8 13 29.92 1013 10 16.0934 0 0
8:54 am 08:54 Sunny 81 27.2 74 23.3 79 79 S 9 15 29.92 1013 10 16.0934 0 0
9:54 am 09:54 Sunny 85 29.4 74 23.3 70 70 S 9 15 29.91 1013 10 16.0934 0 0
10:54 am 10:54 Sunny 87 30.6 75 23.9 67 67 S 13 20 29.91 1013 10 16.0934 0 0
11:54 am 11:54 Sunny 90 32.2 73 22.8 58 58 SSE 17 28 29.91 1013 10 16.0934 0 0
12:54 pm 12:54 Sunny 91 32.8 71 21.7 52 52 SSE 16 26 29.89 1012 10 16.0934 0 0
1:54 pm 13:54 Partly Cloudy 91 32.8 73 22.8 56 56 S 20 31 29.88 1012 10 16.0934 0 0
2:54 pm 14:54 Partly Cloudy 93 33.9 73 22.8 52 52 S 20 31 29.87 1011 10 16.0934 0 0
3:54 pm 15:54 Mostly Sunny 93 33.9 73 22.8 52 52 SSE 20 31 29.85 1011 10 16.0934 0 0
4:54 pm 16:54 Partly Cloudy with Nearby Thunderstorms 94 34.4 74 23.3 52 52 S 17 28 29.82 1010 10 16.0934 0 0
5:46 pm 17:46 Sunny 90 32.2 73 22.8 58 58 SE 13 20 29.8 1009 10 16.0934 0 0
5:54 pm 17:54 Partly Cloudy 90 32.2 74 23.3 59 59 SE 13 20 29.83 1010 10 16.0934 0 0
6:54 pm 18:54 Sunny 91 32.8 75 23.9 59 59 S 14 22 29.8 1009 10 16.0934 0 0
7:54 pm 19:54 Sunny 89 31.7 74 23.3 61 61 SSE 14 22 29.81 1010 10 16.0934 0 0
8:54 pm 20:54 Clear 87 30.6 75 23.9 67 67 SSE 12 19 29.82 1010 10 16.0934 0 0
9:54 pm 21:54 Clear 86 30 75 23.9 70 70 S 13 20 29.83 1010 10 16.0934 0 0
10:54 pm 22:54 Clear 84 28.9 75 23.9 74 74 S 14 22 29.82 1010 10 16.0934 0 0
11:54 pm 23:54 Clear 83 28.3 75 23.9 77 77 S 15 24 29.82 1010 10 16.0934 0 0

Powered by AerisWeather